TIME,DELAY(SENSOR),PRES,T(CTD),SAL,OXYGEN,RAWTEMP,T(OPTODE),TCPHASE,FLUOR,BETA(BETA700),BETA(BETA412),BETA(BETA440),CDOM,C(CSC),ED(ED412.40),ED(ED444.00),ED(ED489.70),ED(ED554.30),LU(LU411.80),LU(LU443.40),LU(LU489.60),LU(LU554.10),COMP,TILTX,TILTX(TILTY),CHECK
1355866116,5807,497.2000122070312500,6.2259998321533200,34.1417999267578100,68.9263381958007800,611.3060302734375000,6.2184262275695800,50.4084510803222660,51,103,87,79,80,15098,2147748955,2147420809,2148008539,2147873097,2147631213,2147065746,2148250550,2147197403,3449,5,13,48714
1355866233,5808,486.6799926757812500,6.3930997848510740,34.1376991271972660,71.7709426879882800,606.7072753906250000,6.3673801422119140,49.9954986572265600,52,105,90,80,79,15095,2147748854,2147419373,2148007040,2147871424,2147631954,2147072813,2148249170,2147200210,3043,4,13,7455
1355866360,5807,475.4500122070312500,6.5655999183654785,34.1342010498046900,76.5665664672851600,600.5565795898438000,6.5662860870361330,49.3228683471679700,52,106,89,79,78,15094,2147747401,2147422262,2148009718,2147868937,2147633161,2147072493,2148248667,2147198299,3003,4,13,41214
1355866489,5809,464.3800048828125000,6.6824002265930180,34.1285018920898440,78.8170089721679700,597.5822143554688000,6.6623420715332030,49.0137901306152340,52,103,87,80,79,15094,2147746651,2147423579,2148006198,2147870153,2147632393,2147077668,2148243008,2147195501,2865,4,13,25157
1355866628,5807,453.1499938964844000,6.8376002311706540,34.1374015808105500,78.7181930541992200,592.7214965820312000,6.8191380500793460,48.9522285461425800,51,105,90,79,77,15093,2147750473,2147422144,2148006180,2147870701,2147633014,2147077476,2148242048,2147200301,1964,4,13,53560
1355866767,5806,442.7200012207031000,7.0858001708984375,34.1461982727050800,81.0658493041992200,584.7310180664062000,7.0764160156250000,48.5594596862793000,51,105,84,80,77,15094,2147747949,2147423021,2148004489,2147872109,2147629979,2147078052,2148243757,2147197028,973,4,13,65246
1355866904,5806,431.1799926757812500,7.3182001113891600,34.1381988525390600,89.6449279785156200,577.7542114257812000,7.3005747795104980,47.4731788635253900,51,104,87,81,78,15096,2147748534,2147423872,2148005302,2147870208,2147628452,2147076260,2148246162,2147200548,525,4,13,35172
1355867019,5809,419.9500122070312500,7.4987998008728030,34.1264991760253900,96.5647964477539000,571.8356933593750000,7.4903888702392580,46.6202888488769500,51,104,89,81,78,15092,2147747236,2147423844,2148005787,2147871478,2147628964,2147083446,2148239698,2147200146,930,4,13,28699
1355867136,5804,408.5000000000000000,7.6258001327514650,34.1148986816406250,104.1846008300781200,568.1271972656250000,7.6091690063476560,45.7536087036132800,50,104,86,80,78,15094,2147745197,2147425325,2148005476,2147869403,2147626660,2147086491,2148239003,2147199405,585,4,13,56294
1355867251,5806,397.2399902343750000,7.8578000068664550,34.1086997985839840,111.8496017456054700,560.7175903320312000,7.8461341857910160,44.8550109863281250,50,104,88,82,77,15091,2147745371,2147422317,2148004580,2147867392,2147625462,2147083702,2148239652,2147196754,183,4,13,34074
1355867366,5811,386.6900024414062500,8.1388998031616210,34.1090011596679700,120.4897003173828100,552.1458129882812000,8.1196842193603520,43.8716011047363300,50,105,86,80,77,15092,2147743954,2147421211,2148006345,2147870473,2147626797,2147080310,2148236096,2147198482,3525,4,13,16301
1355867495,5807,375.2900085449219000,8.3593997955322270,34.1068000793457000,127.4876022338867200,545.6566162109375000,8.3263654708862300,43.1086006164550800,50,105,89,81,77,15095,2147741440,2147427163,2148005696,2147872429,2147625810,2147086683,2148234029,2147199579,2893,4,13,37467
1355867622,5807,364.4400024414062500,8.6479997634887700,34.1096000671386700,138.2662048339843800,535.9877929687500000,8.6336860656738280,41.9813308715820300,50,105,87,80,76,15095,2147740242,2147426651,2148003584,2147871780,2147624329,2147088832,2148232603,2147201819,2513,4,13,53829
1355867751,5809,353.3399963378906000,8.8724002838134770,34.1096992492675800,145.4631958007812500,529.0646972656250000,8.8532810211181640,41.2514305114746100,50,109,90,80,73,15094,2147742875,2147423369,2148005924,2147874898,2147620864,2147084964,2148231698,2147204452,1197,4,13,5118
1355867878,5804,342.7500000000000000,9.1471996307373050,34.1030006408691400,157.2272949218750000,520.3394165039062000,9.1295146942138670,40.1509094238281250,50,107,90,79,74,15092,2147736210,2147425005,2148003163,2147874038,2147619291,2147087963,2148230774,2147203437,669,4,13,61695
1355868017,5808,331.9899902343750000,9.3857002258300780,34.1041984558105500,163.6139068603515600,512.5540161132812000,9.3755102157592770,39.5268287658691400,50,106,90,81,74,15092,2147737645,2147424429,2148008192,2147873508,2147618221,2147090752,2148229915,2147202386,2939,4,13,54593
1355868182,5812,320.5799865722656000,9.7196998596191400,34.1124000549316400,172.3365936279297000,502.2860107421875000,9.6992740631103520,38.7088890075683600,49,107,87,81,72,15089,2147734628,2147424960,2148008356,2147871259,2147614390,2147094354,2148225947,2147196818,3052,4,13,35305
1355868345,5808,310.5000000000000000,10.0340003967285160,34.1183013916015600,177.8383026123047000,491.9888916015625000,10.0232095718383790,38.1426391601562500,49,107,88,80,72,15089,2147733741,2147424146,2148008603,2147873536,2147617718,2147100288,2148228004,2147204224,1242,3,13,46596
1355868505,5809,298.3299865722656000,10.6061000823974610,34.1206016540527340,188.2362976074218800,473.5795898437500000,10.6005897521972660,37.1295890808105500,48,107,88,81,71,15090,2147732434,2147423113,2148014491,2147872420,2147613403,2147107885,2148228928,2147201645,668,4,14,32731
1355868632,5806,287.3599853515625000,11.0607004165649410,34.1441993713378900,197.8804931640625000,456.7587890625000000,11.1262903213500980,36.2346496582031250,49,108,88,80,71,15094,2147731940,2147425481,2148014363,2147869805,2147608585,2147108004,2148224402,2147203840,1302,3,13,1456
1355868761,5809,276.5799865722656000,11.5621004104614260,34.1669006347656250,201.4223022460937500,441.6452941894531000,11.5972099304199220,35.7699089050293000,48,108,87,80,69,15093,2147731190,2147429083,2148025545,2147870400,2147607360,2147114313,2148224576,2147203483,95,3,13,56948
1355868900,5807,265.7999877929687500,12.1510000228881840,34.1817016601562500,202.0511016845703000,423.0935974121094000,12.1735601425170900,35.4342002868652340,49,105,89,80,69,15092,2147731364,2147438025,2148035273,2147873225,2147601545,2147116242,2148233188,2147209526,2400,3,13,53214
1355869083,5808,252.5599975585937500,13.0921001434326170,34.2344017028808600,204.5552978515625000,393.1765136718750000,13.0994796752929690,34.8134803771972660,49,106,87,80,69,15089,2147727414,2147437732,2148057115,2147871990,2147599698,2147131456,2148237366,2147205092,1020,4,13,53697
1355869234,5806,241.8000030517578000,14.5785999298095700,34.3470001220703100,207.1076965332031200,345.9100952148437500,14.5549297332763670,33.9414215087890600,49,104,88,80,67,15092,2147723858,2147448813,2148079945,2147872676,2147597357,2147142189,2148243008,2147209920,916,4,14,39755
1355869393,5810,229.5899963378906200,15.6364002227783200,34.4698982238769500,208.8325958251953000,311.0616149902344000,15.6235704421997070,33.3261184692382800,49,104,86,80,67,15089,2147722102,2147462052,2148114678,2147873572,2147586605,2147152438,2148246692,2147209380,120,3,13,21816
1355869496,5809,218.3800048828125000,16.2591991424560550,34.5407981872558600,209.2191009521484400,289.7091064453125000,16.2770195007324220,32.9938888549804700,49,102,88,80,66,15086,2147718976,2147460333,2148089974,2147870537,2147583652,2147168649,2148233865,2147210715,368,3,14,63526
1355869587,5808,207.8999938964843800,17.0212001800537100,34.6342010498046900,209.3235931396484400,264.3422851562500000,17.0524196624755860,32.6242790222168000,50,104,85,80,66,15086,2147725293,2147512758,2148237860,2147871497,2147581961,2147194633,2148293595,2147218020,642,4,15,35201
1355869686,5806,197.3699951171875000,17.9057998657226560,34.7608985900878900,210.5536956787109400,234.7637023925781200,17.9558601379394530,32.1393203735351560,51,105,87,79,64,15082,2147731291,2147554788,2148336868,2147871689,2147583762,2147227053,2148345444,2147217161,968,3,13,46222
1355869741,5809,192.4799957275390600,18.2556991577148440,34.8101997375488300,211.9373016357422000,225.0843048095703000,18.2514495849609380,31.9286708831787100,50,104,86,79,65,15083,2147732260,2147578267,2148386422,2147873874,2147582756,2147240694,2148368548,2147219712,474,3,14,54938
1355869796,5808,188.0399932861328000,18.3659000396728500,34.8330993652343750,213.2456970214843800,221.5646972656250000,18.3589401245117200,31.8083801269531250,50,104,87,82,64,15081,2147733403,2147602166,2148441536,2147871890,2147579035,2147262601,2148390674,2147225636,742,3,14,54775
1355869851,5806,184.2200012207031200,18.6553001403808600,34.8665008544921900,213.0106964111328000,212.5736999511718800,18.6335201263427730,31.6972694396972660,51,104,88,80,66,15082,2147741741,2147627017,2148486445,2147870400,2147581513,2147274550,2148410678,2147225280,977,3,14,41444
1355869918,5805,180.4100036621093800,18.8962993621826170,34.9071998596191400,213.3509979248047000,202.4403076171875000,18.9430408477783200,31.5397701263427730,52,105,89,80,64,15080,2147746322,2147649636,2148539840,2147871698,2147581760,2147290285,2148441435,2147229860,1954,3,15,6466
1355869997,5804,176.5899963378906200,19.2756004333496100,34.9612998962402340,215.3394927978515600,191.9877014160156200,19.2623691558837900,31.2910404205322270,52,103,86,80,64,15076,2147748141,2147649197,2148524178,2147871131,2147583597,2147292333,2148428041,2147227584,2192,3,15,35411
1355870088,5810,172.4199981689453000,19.7343997955322270,35.0187988281250000,215.4154968261718800,177.9622955322265600,19.6910400390625000,31.0972099304199220,55,105,87,81,64,15077,2147764964,2147726107,2148690276,2147870857,2147589403,2147346596,2148508617,2147234733,1513,3,15,36596
1355870167,5813,168.1300048828125000,20.1222991943359380,35.0824012756347660,217.2304992675781200,164.4705963134765600,20.1036396026611330,30.8206501007080080,56,103,87,80,63,15074,2147781421,2147789805,2148830107,2147872987,2147596196,2147388854,2148572836,2147238390,973,2,15,35903
1355870234,5807,164.0899963378906200,20.1571006774902340,35.0910987854003900,219.4732055664062500,162.9620971679687500,20.1497898101806640,30.6837100982666000,58,104,85,80,63,15064,2147797101,2147853147,2148942966,2147873389,2147601773,2147427373,2148631314,2147245677,277,2,15,56073
1355870291,5809,160.2899932861328000,20.2768993377685550,35.1059989929199200,219.8569030761718800,158.9187011718750000,20.2735099792480470,30.6101493835449220,59,105,89,80,62,15063,2147822582,2147920393,2149075044,2147874121,2147611410,2147468050,2148693037,2147250486,3243,2,15,48466
1355870358,5808,156.0399932861328000,20.4661998748779300,35.1254997253418000,220.8623046875000000,153.3867034912109400,20.4428291320800780,30.4851894378662100,61,108,87,81,63,15066,2147849664,2147987181,2149194953,2147874395,2147622765,2147504073,2148749330,2147251236,3409,2,15,40566
1355870425,5807,152.3099975585937500,20.5986995697021500,35.1419982910156250,221.3041992187500000,149.2823944091797000,20.5684890747070300,30.4083499908447270,62,107,88,80,64,15063,2147894509,2148133065,2149494061,2147877494,2147643730,2147602331,2148892105,2147266075,163,3,15,49027
1355870504,5808,148.8300018310547000,20.6905994415283200,35.1568984985351560,222.2236938476562500,145.1454010009765600,20.6951808929443360,30.3072795867919920,64,108,87,81,62,15058,2147971977,2148368365,2149965494,2147882194,2147675574,2147741997,2149118811,2147280429,1072,2,16,2420
1355870621,5804,144.8200073242187500,20.8332004547119140,35.1618003845214840,223.0623016357422000,140.6656951904297000,20.8324108123779300,30.2061405181884770,66,106,87,81,63,15053,2147849508,2147873581,2148829595,2147874779,2147626276,2147449325,2148571593,2147241334,1028,2,15,24611
1355870724,5810,140.5700073242187500,20.9071998596191400,35.1683006286621100,223.1022033691406200,138.3000030517578000,20.9048995971679700,30.1729698181152340,67,110,88,79,63,15047,2148072228,2148528091,2150191296,2147883986,2147717869,2147836818,2149228626,2147289106,3212,2,16,45441
1355870815,5805,136.6600036621093800,21.0034008026123050,35.1683998107910160,223.3161010742187500,135.2839965820312500,20.9973392486572270,30.1226005554199220,71,112,88,81,62,15048,2148140653,2148669686,2150423305,2147886774,2147745755,2147914816,2149335826,2147296960,116,2,15,18238
1355870908,5806,132.4700012207031200,21.2042999267578120,35.1702003479003900,224.2790069580078000,128.9759063720703000,21.1907405853271500,29.9922904968261720,80,112,87,83,61,15034,2148277376,2148998317,2151027565,2147894518,2147807734,2148100498,2149619593,2147318445,710,2,15,25575
1355870999,5804,128.5899963378906200,21.2982006072998050,35.1794013977050800,223.7969970703125000,126.3275985717773400,21.2719707489013670,29.9813804626464840,81,116,90,81,63,15036,2148398189,2149222784,2151396790,2147896301,2147853001,2148214784,2149755840,2147331574,1312,2,16,32771
1355871114,5808,125.3300018310546900,21.3568000793457030,35.1926994323730500,224.9761962890625000,123.7611007690429700,21.3507099151611330,29.8894996643066400,83,112,89,82,61,15033,2148510573,2149381458,2151629211,2147902125,2147899904,2148294317,2149864566,2147340342,2099,2,16,42014
1355871285,5809,120.9199981689453100,21.4069004058837900,35.2018013000488300,226.0346984863281200,122.0847015380859400,21.4021492004394530,29.8154106140136720,81,113,90,82,63,15026,2148795437,2149834011,2152360064,2147913152,2148018075,2148521563,2150170075,2147367524,2022,2,16,40952
1355871388,5805,116.2799987792968800,21.5620994567871100,35.2065010070800800,226.1318969726562500,118.1019973754882800,21.5243797302246100,29.7588901519775400,84,118,90,81,63,15029,2149237248,2150575314,2153561536,2147937490,2148206162,2148918189,2150698459,2147410185,1409,2,15,54950
1355871467,5809,112.3099975585937500,21.8089008331298830,35.2267990112304700,226.4880065917968800,109.2365036010742200,21.7966403961181640,29.6266307830810550,92,116,92,85,61,15020,2148979401,2149809755,2151949266,2147922221,2148097389,2148528932,2150042843,2147361645,195,2,15,10787
1355871548,5810,108.1699981689453100,22.0554008483886720,35.2130012512207000,227.7658996582031200,101.6389007568359400,22.0301609039306640,29.4663600921630860,109,118,90,82,63,15004,2150079542,2151787858,2155326345,2147983570,2148536256,2149511085,2151455670,2147475840,2892,2,16,41685
1355871627,5805,104.9300003051757800,22.0862007141113280,35.2098007202148440,227.6811981201172000,100.0074005126953100,22.0803298950195300,29.4496402740478500,109,122,89,83,62,14997,2150540617,2152440932,2156241974,2148009005,2148703506,2149791131,2151781732,2147511259,2597,2,16,53635
1355871742,5807,101.3499984741211000,22.1697998046875000,35.2071990966796900,226.0247039794922000,97.5750427246093800,22.1551399230957030,29.4991493225097660,119,121,88,83,61,14988,2151168438,2153289810,2157396260,2148042998,2148946358,2150178148,2152258532,2147555913,26,2,15,54421
1355871857,5805,98.3899993896484400,22.2756004333496100,35.2102012634277340,225.5155029296875000,93.5636367797851600,22.2785701751709000,29.4725303649902340,123,118,89,82,62,14981,2152083894,2154570523,2159194971,2148094912,2149268233,2150671222,2152862637,2147624054,262,2,15,58873
1355871912,5806,96.3199996948242200,22.4710998535156250,35.2113990783691400,225.1448059082031200,87.4692306518554700,22.4661903381347660,29.4125995635986330,126,120,89,82,62,14971,2152645869,2155310829,2160210276,2148123574,2149474587,2150968347,2153218752,2147661129,382,2,16,58081
1355871967,5810,94.3499984741211000,22.6273994445800780,35.2201995849609400,225.9568023681640600,82.5450592041015600,22.6178894042968750,29.3097095489501950,132,121,89,81,61,14965,2153428123,2156360009,2161664960,2148182089,2149742089,2151355712,2153707693,2147706834,252,2,15,49517
1355872022,5808,92.4700012207031200,22.8188991546630860,35.2304992675781250,227.2743988037109400,77.2577896118164000,22.7808704376220700,29.1782207489013670,134,120,91,83,61,14965,2153981074,2157036489,2162515172,2148215433,2149930669,2151585929,2153966089,2147741449,393,2,16,58680
1355872077,5811,90.7799987792968800,22.9030990600585940,35.2402000427246100,229.5072021484375000,73.9487762451171900,22.8829307556152340,29.0289192199707030,145,118,90,82,61,14957,2154539145,2157722468,2163366372,2148257618,2150139392,2151862244,2154276278,2147779721,775,2,15,45021
1355872155,5809,88.1100006103515600,23.0520000457763670,35.2490005493164060,232.2944030761718800,69.0338592529296900,23.0345993041992200,28.8345108032226560,140,119,90,84,62,14949,2156163675,2159874249,2166243072,2148376996,2150694838,2152638464,2155216676,2147885705,556,2,16,27074
1355872210,5810,85.6500015258789000,23.2425003051757800,35.2468986511230500,234.2041015625000000,63.2414817810058600,23.2134704589843750,28.6720695495605470,146,121,93,82,59,14957,2157510656,2161588973,2168360466,2148467126,2151170011,2153249682,2155892790,2147967981,787,2,16,59161
1355872265,5809,83.5800018310546900,23.3390007019042970,35.2472000122070300,235.8516998291015600,59.7593803405761700,23.3210697174072270,28.5522403717041000,145,118,90,83,62,14941,2158853522,2163294884,2170496246,2148558710,2151665536,2153899456,2156621174,2148056155,863,2,16,38773
1355872320,5810,81.7300033569336000,23.3610992431640620,35.2472000122070300,237.0294036865234400,58.7442398071289060,23.3524494171142580,28.4854106903076170,143,118,90,84,61,14948,2160163638,2164952475,2172454061,2148655652,2152160566,2154520118,2157276004,2148136100,1316,2,16,44752
1355872375,5808,79.8799972534179700,23.3966999053955080,35.2467002868652340,237.6466064453125000,57.7717781066894500,23.3825092315673830,28.4449691772460940,136,116,91,82,63,14943,2161597193,2166550299,2174107666,2148765604,2152739757,2155252754,2158059574,2148229869,1223,2,16,27708
1355872430,5809,77.9800033569336000,23.4855995178222660,35.2462005615234400,238.1672973632812500,55.2692184448242200,23.4598999023437500,28.3899707794189450,122,117,90,82,60,14953,2163544374,2168879634,2176785764,2148934592,2153472932,2156151524,2158959844,2148351835,1359,2,16,53314
1355872509,5810,75.0599975585937500,23.5323009490966800,35.2453002929687500,238.9664001464843800,52.3570518493652340,23.5499897003173830,28.3172607421875000,119,116,90,81,62,14949,2168096429,2174191021,2182960530,2149302116,2155213961,2158319268,2161230363,2148642706,2044,1,16,9687
1355872564,5810,72.3899993896484400,23.7127990722656250,35.2420005798339840,239.4463958740234400,47.3985595703125000,23.7034606933593750,28.2338104248046880,106,117,92,83,60,14954,2171306660,2177531693,2186109458,2149556525,2156749238,2160172781,2163013019,2148854482,1433,2,16,54152
1355872619,5807,70.0199966430664000,23.8127002716064450,35.2444000244140600,239.9936981201172000,44.3038482666015600,23.7993106842041000,28.1707897186279300,102,118,92,84,62,14958,2175364726,2181853430,2190584832,2149840420,2158224603,2161872630,2164549732,2149052489,1023,2,16,58318
1355872674,5808,68.0000000000000000,23.8768005371093750,35.2462997436523440,240.5084991455078000,42.0937805175781250,23.8677902221679700,28.1202201843261720,102,117,90,84,58,14956,2179384338,2185805650,2194352128,2150214390,2160155181,2164083730,2166597001,2149329883,973,2,16,37495
1355872741,5807,65.8199996948242200,24.6888008117675780,35.2734985351562500,237.4201965332031200,16.7949295043945300,24.6534004211425780,27.9457893371582030,97,117,91,85,59,14956,2184156397,2190630765,2199212745,2150737225,2162412105,2166611218,2168948525,2149640082,582,2,16,25724
1355872819,5804,64.4000015258789000,24.8868999481201170,35.2956008911132800,236.9078979492187500,11.0859498977661130,24.8311500549316400,27.8982906341552730,74,119,92,83,57,14976,2185438052,2192208548,2201318436,2150951780,2163974939,2168412333,2170701046,2149838217,3453,2,16,1894
1355872922,5805,62.1899986267089840,24.8999996185302730,35.2993011474609400,236.5605010986328000,9.1386613845825200,24.8918209075927730,27.8899898529052730,71,117,91,84,58,14964,2186190518,2192293659,2200387666,2151207424,2165109129,2168698368,2169701723,2149820818,3183,2,16,6979
1355873001,5809,60.1699981689453100,24.9335994720459000,35.3026008605957000,236.2922058105468800,8.1133871078491210,24.9237709045410160,27.8895397186279300,69,120,91,83,58,14965,2165322404,2166134326,2167664512,2149161965,2156651913,2157260260,2157212379,2148308132,72,2,16,33861
1355873080,5808,58.2999992370605500,24.9374008178710940,35.3018989562988300,236.3365020751953000,7.8022150993347170,24.9334697723388670,27.8837203979492200,70,120,93,84,59,14971,2173001728,2175273462,2178487606,2150194944,2161335652,2162578633,2162169453,2148901833,546,2,16,44288
1355873158,5809,55.8100013732910160,24.9386005401611330,35.3026008605957000,236.5861968994140600,7.6571531295776370,24.9379901885986330,27.8705196380615230,69,118,89,83,58,14961,2203181723,2212371108,2223800393,2154136749,2181199661,2186343789,2185378066,2151717321,512,1,16,46696
1355873213,5809,53.2999992370605500,24.9405994415283200,35.3026008605957000,236.6564941406250000,7.5771961212158200,24.9404907226562500,27.8663406372070300,68,118,91,85,59,14962,2204573129,2213086509,2223796992,2154895826,2184399707,2188890176,2186775396,2151980425,243,2,16,28000
1355873268,5809,50.6100006103515600,24.9395999908447270,35.3025016784668000,236.7976074218750000,7.5763111114501950,24.9405097961425780,27.8600692749023440,67,118,91,83,55,14957,2209222500,2218430921,2229873353,2155942354,2190744246,2195662491,2192500681,2152640237,27,1,16,967
1355873323,5808,47.8800010681152340,24.9379997253417970,35.3027000427246100,236.9060974121093800,7.5938172340393070,24.9399700164794920,27.8553390502929700,66,121,91,82,59,14961,2215462930,2224971629,2236872137,2158266953,2196919689,2201553033,2196925714,2153469696,3530,1,16,8235
1355873378,5808,45.0699996948242200,24.9396991729736330,35.3031005859375000,236.9721984863281200,7.5218257904052730,24.9422092437744140,27.8514709472656250,65,117,91,85,59,14963,2220634989,2230131885,2241961819,2160658230,2204023122,2208645760,2202577270,2154506934,3340,2,17,63242
1355873433,5806,42.1399993896484400,24.9414005279541000,35.3027992248535160,236.9980010986328000,7.3690919876098630,24.9469699859619140,27.8484096527099600,63,118,90,85,58,14962,2232282002,2243306532,2256993865,2164747410,2214091081,2218980480,2211067867,2156161572,3378,2,16,48771
1355873491,5808,38.8100013732910160,24.9410991668701170,35.3028984069824200,237.0950012207031200,7.4148240089416500,24.9455509185791000,27.8445396423339840,63,117,88,83,54,14957,2243915968,2255690139,2270194230,2169077723,2226092717,2231262948,2221016731,2157721389,3545,2,16,61142
1355873546,5805,35.5200004577636700,24.9409008026123050,35.3030014038085940,237.1537933349609400,7.3443078994750980,24.9477405548095700,27.8409996032714840,62,116,91,84,56,14961,2254856777,2266950793,2281750619,2174834550,2235532480,2240330212,2228026825,2159708489,3549,1,16,8649
1355873601,5806,32.0400009155273440,24.9419994354248050,35.3026008605957000,237.3307037353515600,7.2983798980712890,24.9491691589355470,27.8323993682861330,61,117,92,85,58,14955,2270230290,2283583689,2299917778,2183835355,2250687058,2255471021,2240140278,2162577389,3539,1,17,49293
1355873656,5815,28.5000000000000000,24.9416999816894530,35.3025016784668000,237.4685974121093800,7.2888398170471190,24.9494705200195300,27.8261699676513670,59,117,89,83,53,14962,2271218176,2282314029,2295829147,2187636827,2254866541,2257910793,2240454729,2163475264,1799,1,16,42041
1355873711,5802,24.9500007629394530,24.9424991607666000,35.3032989501953100,237.5570983886718800,7.1230258941650390,24.9546394348144530,27.8201007843017580,59,116,91,84,56,14960,2311573458,2328760557,2350261595,2213825408,2282104164,2285881078,2263633325,2170857654,195,2,14,51627
